Waarnemingen

Advertentie
Mijn weer
Nancy/Essey, Frankrijk (7180): temperatuur & dauwpunt: 15.01.2017 01:00:00 - 21.01.2017 01:00:00 (CET)Nancy/Essey, Frankrijk (7180): temperatuur 5cm: 15.01.2017 01:00:00 - 21.01.2017 01:00:00 (CET)Nancy/Essey, Frankrijk (7180): temperatuur -20cm & temperatuur -100cm: 15.01.2017 01:00:00 - 21.01.2017 01:00:00 (CET)Nancy/Essey, Frankrijk (7180): windsnelheid & windstoten: 15.01.2017 01:00:00 - 21.01.2017 01:00:00 (CET)Nancy/Essey, Frankrijk (7180): windrichting: 15.01.2017 01:00:00 - 21.01.2017 01:00:00 (CET)Nancy/Essey, Frankrijk (7180): luchtdruk: 15.01.2017 01:00:00 - 21.01.2017 01:00:00 (CET)Nancy/Essey, Frankrijk (7180): zicht: 15.01.2017 01:00:00 - 21.01.2017 01:00:00 (CET)Nancy/Essey, Frankrijk (7180): Zonneschijnduur: 15.01.2017 01:00:00 - 21.01.2017 01:00:00 (CET)Nancy/Essey, Frankrijk (7180): neerslag: 15.01.2017 01:00:00 - 21.01.2017 01:00:00 (CET)
Datum & Tijd tt [°C] td [°C] tt 5cm [°C] tt -20cm [°C] tt -100cm [°C] ff [km/u] ff [kn] fx [km/u] fx [kn] dd ppp [hPa] vv [km] sd [min] rr [mm]
21.01.2017 01:00:00 - - - - - - - - - - - - - -
21.01.2017 00:00:00 -6,6 -10,3 -11,3 1,8 5,8 4 2 11 6 O 1031,6 11 0 0,0
20.01.2017 23:00:00 -7,0 -10,9 -10,4 1,8 5,8 6 4 9 5 NO 1031,9 15 0 0,0
20.01.2017 22:00:00 -4,6 -9,1 -9,1 1,8 5,8 3 2 12 6 OZO 1031,8 14 0 0,0
20.01.2017 21:00:00 -4,7 -8,6 -8,3 1,8 5,8 2 1 17 9 NNO 1031,8 13 0 0,0
20.01.2017 20:00:00 -3,9 -8,2 -6,6 1,8 5,8 10 5 31 17 ONO 1031,7 14 0 0,0
20.01.2017 19:00:00 -2,3 -7,6 -5,9 1,8 5,8 19 10 29 16 ONO 1031,4 15 0 0,0
20.01.2017 18:00:00 -3,0 -7,7 -7,1 1,8 5,8 10 5 15 8 O 1031,5 15 0 0,0
20.01.2017 17:00:00 -0,8 -6,8 -4,0 1,8 5,8 8 4 19 11 OZO 1031,2 16 41 0,0
20.01.2017 16:00:00 0,8 -6,1 1,0 1,8 5,8 11 6 19 10 O 1031,1 17 60 0,0
20.01.2017 15:00:00 0,9 -6,2 1,9 1,8 5,8 13 7 24 13 ONO 1030,9 15 60 0,0
20.01.2017 14:00:00 0,2 -6,7 1,4 1,8 5,8 14 8 24 13 ONO 1031,4 13 60 0,0
20.01.2017 13:00:00 -0,7 -6,9 0,9 1,8 5,8 15 8 23 12 ONO 1032,1 13 60 0,0
20.01.2017 12:00:00 -2,2 -7,9 -0,7 1,9 5,9 15 8 27 15 ONO 1032,8 12 60 0,0
20.01.2017 11:00:00 -3,2 -8,5 -1,8 1,8 5,8 16 9 33 18 ONO 1033,5 12 60 0,0
20.01.2017 10:00:00 -4,5 -9,0 -6,3 1,9 5,9 10 5 19 10 ONO 1033,3 16 57 0,0
20.01.2017 09:00:00 -6,2 -9,7 -9,2 1,9 5,9 14 7 20 11 ONO 1033,2 17 14 0,0
20.01.2017 08:00:00 -7,5 -10,2 -10,7 1,9 5,9 6 3 22 12 ONO 1033,1 18 0 0,0
20.01.2017 07:00:00 -7,3 -10,0 -10,8 1,9 5,8 16 8 20 11 ONO 1032,9 19 0 0,0
20.01.2017 06:00:00 -7,4 -10,6 -11,1 1,9 5,9 10 6 16 8 NO 1033,0 19 0 0,0
20.01.2017 05:00:00 -6,4 -9,9 -10,4 1,9 5,9 10 6 17 9 NNO 1033,1 19 0 0,0
20.01.2017 04:00:00 -6,7 -10,1 -10,5 1,9 5,9 9 5 14 7 NNO 1033,0 19 0 0,0
20.01.2017 03:00:00 -5,8 -9,5 -9,0 1,9 5,9 7 4 13 7 N 1033,0 17 0 0,0
20.01.2017 02:00:00 -6,2 -9,2 -9,8 2,0 5,9 8 4 18 10 NNO 1033,0 15 0 0,0
20.01.2017 01:00:00 -6,2 -9,7 -9,8 2,0 5,9 11 6 16 8 NNO 1033,4 15 0 0,0
20.01.2017 00:00:00 -5,9 -9,3 -9,6 2,0 5,9 5 3 15 8 NO 1033,7 13 0 0,0
19.01.2017 23:00:00 -5,4 -9,1 -9,4 2,0 5,9 9 5 13 7 NNO 1033,8 15 0 0,0
19.01.2017 22:00:00 -4,6 -8,9 -7,6 2,0 5,9 6 3 11 6 N 1033,7 15 0 0,0
19.01.2017 21:00:00 -4,1 -8,8 -8,4 2,0 5,9 6 4 13 7 N 1034,0 14 0 0,0
19.01.2017 20:00:00 -4,0 -8,0 -8,7 2,0 5,9 9 5 13 7 NNO 1034,0 11 0 0,0
19.01.2017 19:00:00 -3,3 -8,0 -7,8 2,0 5,9 6 4 18 10 NO 1033,9 12 0 0,0
19.01.2017 18:00:00 -4,4 -8,2 -7,6 2,0 5,9 13 7 19 10 ONO 1033,8 11 0 0,0
19.01.2017 17:00:00 -2,1 -7,0 -5,3 2,0 5,9 10 5 24 13 NO 1033,5 15 38 0,0
19.01.2017 16:00:00 0,0 -6,0 -0,3 2,1 6,0 20 11 29 15 NO 1032,9 12 60 0,0
19.01.2017 15:00:00 -0,1 -6,1 0,6 2,1 6,0 20 11 35 19 NO 1033,4 9 60 0,0
19.01.2017 14:00:00 -0,7 -6,5 0,4 2,1 6,0 23 12 34 19 NNO 1033,5 7 60 0,0
19.01.2017 13:00:00 -1,6 -6,4 0,2 2,1 6,0 22 12 32 18 NO 1034,1 7 60 0,0
19.01.2017 12:00:00 -2,7 -7,2 -1,1 2,1 6,0 19 10 29 16 NNO 1034,5 7 60 0,0
19.01.2017 11:00:00 -4,0 -7,6 -3,5 2,1 6,0 22 12 36 19 NNO 1034,9 7 60 0,0
19.01.2017 10:00:00 -5,3 -8,4 -6,1 2,1 6,0 26 14 36 19 NO 1034,9 6 60 0,0
19.01.2017 09:00:00 -6,4 -9,0 -8,0 2,1 6,0 21 11 29 16 NO 1034,8 10 5 0,0
19.01.2017 08:00:00 -7,0 -9,2 -8,1 2,2 6,0 21 11 28 15 NO 1034,5 10 0 0,0
19.01.2017 07:00:00 -6,4 -9,0 -7,6 2,2 6,0 20 11 28 15 NNO 1034,2 10 0 0,0
19.01.2017 06:00:00 -6,4 -9,0 -7,9 2,2 6,0 23 12 33 18 NNO 1033,8 11 0 0,0
19.01.2017 05:00:00 -6,5 -9,2 -8,4 2,2 6,0 14 7 22 12 NNO 1034,1 11 0 0,0
19.01.2017 04:00:00 -6,7 -9,4 -8,6 2,2 6,0 11 6 16 9 N 1034,3 11 0 0,0
19.01.2017 03:00:00 -6,2 -9,2 -7,9 2,3 6,0 6 3 27 15 N 1034,4 11 0 0,0
19.01.2017 02:00:00 -5,9 -8,8 -7,6 2,3 6,0 18 10 29 15 NO 1034,2 12 0 0,0
19.01.2017 01:00:00 -5,9 -9,0 -7,6 2,3 6,0 17 9 29 16 NO 1034,1 12 0 0,0
19.01.2017 00:00:00 -5,9 -9,0 -8,5 2,3 6,0 19 10 27 14 NO 1034,5 12 0 0,0
18.01.2017 23:00:00 -5,0 -8,7 -7,8 2,4 6,0 11 6 22 12 NNO 1034,8 12 0 0,0
18.01.2017 22:00:00 -5,0 -8,9 -7,4 2,3 6,0 16 9 24 13 NO 1034,6 14 0 0,0
18.01.2017 21:00:00 -4,8 -8,7 -8,6 2,3 6,0 12 7 23 13 NO 1034,9 16 0 0,0
18.01.2017 20:00:00 -4,5 -8,6 -8,5 2,4 6,0 5 3 19 11 NO 1034,9 17 0 0,0
18.01.2017 19:00:00 -3,9 -8,8 -7,7 2,3 6,0 9 5 23 12 NO 1035,0 19 0 0,0
18.01.2017 18:00:00 -2,9 -8,0 -5,1 2,4 6,0 14 8 36 19 NNO 1034,7 20 0 0,0
18.01.2017 17:00:00 -2,0 -7,7 -3,3 2,4 6,0 23 12 37 20 NO 1034,3 24 37 0,0
18.01.2017 16:00:00 -1,1 -7,3 -1,4 2,4 6,0 21 12 46 25 NO 1034,3 20 60 0,0
18.01.2017 15:00:00 -0,9 -6,9 -0,4 2,4 6,0 31 17 51 28 NO 1034,2 20 58 0,0
18.01.2017 14:00:00 -1,0 -6,8 -0,6 2,5 6,1 31 17 48 26 NO 1034,3 18 60 0,0
18.01.2017 13:00:00 -1,2 -7,1 0,2 2,5 6,1 28 15 47 25 ONO 1034,8 20 60 0,0
18.01.2017 12:00:00 -1,6 -7,1 -1,8 2,5 6,1 26 14 39 21 ONO 1034,8 20 51 0,0
18.01.2017 11:00:00 -3,0 -7,2 -2,9 2,5 6,1 24 13 45 24 NO 1035,3 19 52 0,0
18.01.2017 10:00:00 -3,7 -7,5 -4,1 2,5 6,1 23 13 42 23 NO 1035,4 20 60 0,0
18.01.2017 09:00:00 -4,3 -8,1 -5,8 2,6 6,1 22 12 37 20 NNO 1034,9 34 16 0,0
18.01.2017 08:00:00 -4,6 -8,2 -5,9 2,6 6,1 22 12 40 21 NNO 1034,5 28 0 0,0
18.01.2017 07:00:00 -4,5 -7,9 -6,1 2,6 6,1 24 13 36 19 NO 1034,3 28 0 0,0
18.01.2017 06:00:00 -4,7 -8,0 -6,3 2,6 6,0 18 10 37 20 NO 1034,2 27 0 0,0
18.01.2017 05:00:00 -4,8 -7,9 -6,3 2,7 6,1 23 12 38 20 NO 1034,1 27 0 0,0
18.01.2017 04:00:00 -4,6 -8,0 -7,3 2,7 6,1 22 12 31 17 NNO 1034,1 28 0 0,0
18.01.2017 03:00:00 -5,2 -8,3 -7,1 2,7 6,1 11 6 29 16 NO 1034,7 31 0 0,0
18.01.2017 02:00:00 -4,8 -8,2 -7,2 2,7 6,1 13 7 26 14 NO 1034,7 35 0 0,0
18.01.2017 01:00:00 -4,6 -8,0 -6,7 2,8 6,1 11 6 26 14 NO 1034,7 38 0 0,0
18.01.2017 00:00:00 -3,9 -7,7 -5,9 2,8 6,1 21 11 34 19 NO 1034,6 41 0 0,0
17.01.2017 23:00:00 -3,8 -7,8 -5,3 2,8 6,1 23 12 38 21 NO 1034,6 49 0 0,0
17.01.2017 22:00:00 -3,4 -7,7 -5,8 2,8 6,1 26 14 38 20 NO 1034,7 50 0 0,0
17.01.2017 21:00:00 -4,0 -8,3 -8,2 2,8 6,1 18 10 27 14 NO 1034,7 51 0 0,0
17.01.2017 20:00:00 -4,1 -7,9 -6,9 2,8 6,1 14 8 27 15 NO 1034,7 46 0 0,0
17.01.2017 19:00:00 -3,1 -7,3 -5,5 2,9 6,1 20 11 33 18 NO 1034,3 53 0 0,0
17.01.2017 18:00:00 -4,0 -8,0 -7,4 2,9 6,1 15 8 37 20 NO 1034,2 49 0 0,0
17.01.2017 17:00:00 -2,2 -8,1 -3,8 2,9 6,1 24 13 37 20 NO 1033,8 60 13 0,0
17.01.2017 16:00:00 -1,4 -7,3 -2,6 2,9 6,1 24 13 40 21 NNO 1033,7 60 4 0,0
17.01.2017 15:00:00 -1,7 -7,2 -2,3 3,0 6,1 26 14 42 23 NO 1033,5 52 0 0,0
17.01.2017 14:00:00 -1,3 -6,3 -1,2 3,0 6,1 23 12 39 21 NO 1033,4 35 1 0,0
17.01.2017 13:00:00 -1,8 -6,2 -1,4 3,0 6,1 24 13 41 22 NO 1033,9 35 6 0,0
17.01.2017 12:00:00 -1,9 -6,3 -1,8 3,0 6,1 26 14 37 20 NO 1034,3 29 40 0,0
17.01.2017 11:00:00 -2,8 -7,0 -3,6 3,1 6,1 23 12 32 18 NNO 1034,7 20 44 0,0
17.01.2017 10:00:00 -3,4 -6,7 -4,1 3,1 6,1 16 9 27 15 NNO 1034,4 31 2 0,0
17.01.2017 09:00:00 -4,0 -6,9 -4,3 3,1 6,1 27 14 39 21 NO 1034,6 37 0 0,0
17.01.2017 08:00:00 -4,1 -6,6 -4,8 3,1 6,1 23 12 37 20 NO 1034,0 25 0 0,0
17.01.2017 07:00:00 -4,2 -6,8 -6,4 3,1 6,1 25 14 36 19 NO 1033,3 24 0 0,0
17.01.2017 06:00:00 -5,9 -7,6 -7,5 3,2 6,1 16 9 29 16 NNO 1033,0 12 0 0,0
17.01.2017 05:00:00 -6,2 -7,9 -7,6 3,2 6,1 19 11 27 14 NNO 1032,6 11 0 0,0
17.01.2017 04:00:00 -5,4 -7,5 -7,4 3,2 6,1 16 9 23 12 NNO 1032,1 10 0 0,0
17.01.2017 03:00:00 -5,3 -7,6 -7,7 3,2 6,1 14 8 22 12 NNO 1031,9 15 0 0,0
17.01.2017 02:00:00 -5,5 -7,6 -7,9 3,3 6,1 15 8 23 12 NNO 1031,5 14 0 0,0
17.01.2017 01:00:00 -4,7 -7,3 -7,2 3,3 6,1 14 8 26 14 NNO 1031,2 16 0 0,0
17.01.2017 00:00:00 -3,9 -6,5 -7,6 3,3 6,1 18 10 25 14 NNO 1031,0 18 0 0,0
16.01.2017 23:00:00 -5,0 -6,7 -8,8 3,3 6,1 11 6 17 9 NNO 1030,7 16 0 0,0
16.01.2017 22:00:00 -4,4 -5,9 -8,8 3,3 6,1 10 5 12 7 NO 1030,2 12 0 0,0
16.01.2017 21:00:00 -4,0 -5,1 -8,7 3,3 6,1 9 5 13 7 NO 1029,6 8 0 0,0
16.01.2017 20:00:00 -4,8 -5,8 -8,3 3,3 6,1 8 5 17 9 NO 1029,1 6 0 0,0
16.01.2017 19:00:00 -3,6 -4,3 -9,6 3,3 6,1 13 7 16 9 NNO 1028,2 11 0 0,0
16.01.2017 18:00:00 -3,4 -4,5 -7,7 3,3 6,1 4 2 9 5 N 1027,7 8 0 0,0
16.01.2017 17:00:00 -1,8 -3,2 -4,8 3,3 6,1 5 3 12 6 N 1027,2 9 0 0,0
16.01.2017 16:00:00 -0,6 -2,8 -1,5 3,3 6,1 9 5 16 9 NNO 1026,7 12 30 0,0
16.01.2017 15:00:00 -1,0 -2,9 -0,1 3,3 6,1 12 6 23 12 NNO 1026,8 11 19 -
16.01.2017 14:00:00 -0,3 -2,8 -0,6 3,3 6,1 4 2 13 7 ONO 1026,3 11 21 0,0
16.01.2017 13:00:00 -1,2 -2,9 0,4 3,4 6,1 7 4 11 6 NO 1026,5 9 11 0,0
16.01.2017 12:00:00 -1,6 -2,9 -0,2 3,3 6,1 5 3 13 7 NO 1026,7 2,9 0 0,0
16.01.2017 11:00:00 -2,4 -3,5 -1,4 3,3 6,1 8 4 15 8 NNO 1026,8 9 0 0,0
16.01.2017 10:00:00 -2,0 -2,8 -1,7 3,3 6,1 5 3 11 6 NNO 1026,3 6 0 0,0
16.01.2017 09:00:00 -2,0 -2,6 -1,9 3,4 6,1 7 4 18 10 ONO 1025,9 6 0 0,0
16.01.2017 08:00:00 -1,8 -2,4 -1,9 3,4 6,1 8 5 17 9 NNO 1025,5 8 0 0,0
16.01.2017 07:00:00 -1,8 -2,2 -5,0 3,4 6,1 9 5 18 10 NNO 1024,9 4,0 0 0,0
16.01.2017 06:00:00 -1,7 -2,4 -2,8 3,4 6,1 6 3 18 10 ONO 1024,5 9 0 0,0
16.01.2017 05:00:00 -1,1 -1,4 -1,5 3,4 6,2 12 6 20 11 NO 1024,3 3,7 0 0,0
16.01.2017 04:00:00 -1,0 -1,3 -2,1 3,4 6,1 2 1 7 4 NNW 1023,7 4,0 0 0,0
16.01.2017 03:00:00 -0,8 -1,1 -1,7 3,4 6,1 1 0 6 3 ONO 1023,7 2,1 0 0,4
16.01.2017 02:00:00 -0,6 -0,9 -1,1 3,4 6,1 4 2 9 5 OZO 1023,5 2,5 0 1,2
16.01.2017 01:00:00 -0,3 -0,6 -0,5 3,5 6,1 6 4 9 5 O 1023,6 1,1 0 1,0
16.01.2017 00:00:00 -0,3 -0,6 -0,5 3,4 6,1 4 2 7 4 O 1023,7 1,0 0 0,6
15.01.2017 23:00:00 0,1 -0,6 -0,3 3,5 6,1 5 3 8 4 O 1023,8 2,0 0 0,4
15.01.2017 22:00:00 0,8 -1,3 0,2 3,5 6,1 5 3 11 6 W 1023,7 9 0 0,0
15.01.2017 21:00:00 0,8 -1,4 0,3 3,5 6,1 5 3 16 9 W 1023,7 23 0 0,0
15.01.2017 20:00:00 0,8 -1,6 -0,4 3,5 6,1 8 4 17 9 W 1023,9 20 0 0,0
15.01.2017 19:00:00 0,9 -1,8 -0,3 3,4 6,1 8 4 17 9 WZW 1023,7 32 0 0,0
15.01.2017 18:00:00 1,1 -2,1 -0,4 3,4 6,1 5 3 13 7 WZW 1023,8 51 0 0,0
15.01.2017 17:00:00 1,4 -2,2 0,4 3,4 6,1 6 3 14 7 ZW 1023,7 54 0 0,0
15.01.2017 16:00:00 2,0 -3,1 2,0 3,4 6,1 7 4 16 8 W 1023,6 60 0 0,0
15.01.2017 15:00:00 2,1 -2,2 2,8 3,4 6,1 8 4 16 9 WZW 1023,5 60 2 0,0
15.01.2017 14:00:00 2,0 -2,9 2,0 3,4 6,1 7 4 18 10 W 1023,7 60 0 0,0
15.01.2017 13:00:00 1,8 -2,0 1,9 3,4 6,1 7 4 15 8 WNW 1023,9 60 0 0,0
15.01.2017 12:00:00 1,5 -1,9 1,9 3,4 6,2 9 5 16 9 NNW 1023,9 52 0 0,0
15.01.2017 11:00:00 1,0 -1,9 0,0 3,4 6,1 6 3 21 12 W 1024,0 37 0 0,0
15.01.2017 10:00:00 0,3 -1,9 -0,1 3,4 6,1 10 5 23 13 WNW 1023,8 25 0 0,0
15.01.2017 09:00:00 0,4 -1,7 -1,0 3,4 6,1 13 7 24 13 WNW 1023,3 19 0 0,0
15.01.2017 08:00:00 0,3 -1,3 -0,6 3,4 6,1 8 5 22 12 W 1022,4 18 0 0,0
15.01.2017 07:00:00 0,4 -0,9 -0,6 3,4 6,1 8 4 16 9 NNW 1022,2 20 0 0,0
15.01.2017 06:00:00 0,6 -1,0 -0,2 3,4 6,1 9 5 17 9 W 1021,6 29 0 0,0
15.01.2017 05:00:00 0,4 -1,2 -0,6 3,4 6,1 6 3 21 11 WNW 1021,5 13 0 0,0
15.01.2017 04:00:00 0,4 -2,0 -0,8 3,5 6,1 6 4 27 14 W 1021,0 49 0 0,0
15.01.2017 03:00:00 0,3 -1,8 -1,6 3,5 6,2 10 5 23 13 WNW 1021,2 43 0 0,0
15.01.2017 02:00:00 -0,1 -1,7 -2,2 3,5 6,1 6 3 16 9 WNW 1021,0 20 0 0,0
15.01.2017 01:00:00 0,0 -1,0 -1,8 3,5 6,1 8 4 16 9 WNW 1020,8 13 0 0,0

tt = temperatuur
td = dauwpunt
tt 5cm = temperatuur 5cm
tt -20cm = temperatuur -20cm
tt -100cm = temperatuur -100cm
ff = windsnelheid
fx = windstoten
dd = windrichting
ppp = luchtdruk
vv = zicht
sd = Zonneschijnduur
rr = neerslag

Weerstations in de omgeving